This is the latest recevied weather packets stored in our database for station/object KE6LRO. If no packets are shown the sender has not sent any weather packets the latest 10 day(s).
| Time | Temp. | Humidity | Pressure | Rain* | Wind** | Luminosity | Snow |
|---|---|---|---|---|---|---|---|
| 1777849124 | 25.56° C | 24% | 1014.7 hPa | 0 mm | - | 500 W/m² | - |
| 1777848820 | 24.44° C | 24% | 1014.6 hPa | 0 mm | - | 137 W/m² | - |
| 1777848516 | 24.44° C | 23% | 1014.7 hPa | 0 mm | - | 516 W/m² | - |
| 1777848214 | 24.44° C | 23% | 1014.6 hPa | 0 mm | - | 521 W/m² | - |
| 1777847911 | 25° C | 24% | 1014.9 hPa | 0 mm | - | 528 W/m² | - |
| 1777847609 | 25° C | 24% | 1014.9 hPa | 0 mm | - | 103 W/m² | - |
| 1777847304 | 24.44° C | 24% | 1014.9 hPa | 0 mm | - | 428 W/m² | - |
| 1777847003 | 24.44° C | 24% | 1014.9 hPa | 0 mm | - | 535 W/m² | - |
| 1777846701 | 24.44° C | 25% | 1014.8 hPa | 0 mm | - | 579 W/m² | - |
| 1777846400 | 25° C | 24% | 1015.2 hPa | 0 mm | - | 592 W/m² | - |
| 1777846095 | 24.44° C | 26% | 1014.9 hPa | 0 mm | - | 612 W/m² | - |
| 1777845792 | 23.33° C | 26% | 1015.3 hPa | 0 mm | - | 664 W/m² | - |
| 1777845489 | 23.33° C | 27% | 1015.2 hPa | 0 mm | - | 137 W/m² | - |
| 1777845186 | 23.33° C | 25% | 1015.3 hPa | 0 mm | - | 417 W/m² | - |
| 1777844884 | 22.78° C | 28% | 1015.5 hPa | 0 mm | - | 309 W/m² | - |
| 1777844580 | 23.33° C | 26% | 1015.3 hPa | 0 mm | - | 121 W/m² | - |
| 1777844278 | 24.44° C | 26% | 1015.4 hPa | 0 mm | - | 131 W/m² | - |
| 1777843975 | 25° C | 22% | 1015.5 hPa | 0 mm | - | 667 W/m² | - |
| 1777843672 | 25° C | 23% | 1015.5 hPa | 0 mm | - | 675 W/m² | - |
| 1777843370 | 24.44° C | 23% | 1015.7 hPa | 0 mm | - | 690 W/m² | - |
| 1777843067 | 23.89° C | 24% | 1015.6 hPa | 0 mm | - | 680 W/m² | - |
| 1777842763 | 23.89° C | 25% | 1015.8 hPa | 0 mm | - | 685 W/m² | - |
| 1777842458 | 24.44° C | 25% | 1015.7 hPa | 0 mm | - | 690 W/m² | - |
| 1777842156 | 23.89° C | 25% | 1016.1 hPa | 0 mm | - | 689 W/m² | - |
| 1777841851 | 24.44° C | 26% | 1015.9 hPa | 0 mm | - | 695 W/m² | - |
* Rain latest hour (hover to see other rain measurements)
** Current wind speed in m/s (hover to see current wind gust speed)